Hourly Data Report for June 17, 2012

All times are specified in Local Standard Time (LST). Add 1 hour to adjust for Daylight Saving Time where and when it is observed.

SAINT JOHN A
NEW BRUNSWICK

45°18'58.000" N
65°53'24.000" W
108.80 m
8104901
71609
YSJ

Download Data

Hourly Data (June 2012)
Hourly Data Report for June 17, 2012
Temp Definition
°C
Dew Point Temp Definition
°C
Rel Hum Definition
%
Wind Dir Definition
10's deg

Wind Spd Definition
km/h
Visibility Definition
km
Stn Press Definition
kPa
Hmdx Definition


Wind Chill Definition


Weather Definition


TIME
00:00 9.4 7.4 87 21 7 10.0 101.37     LegendNANA
01:00 7.9 7.0 94 22 4 10.0 101.34     LegendNANA
02:00 6.3 5.6 95   0 10.0 101.32     Clear
03:00 3.5 2.9 96   0 10.0 101.29     LegendNANA
04:00 3.7 3.3 97   0 10.0 101.28     LegendNANA
05:00 3.5 3.1 97   0 10.0 101.28     Mainly Clear
06:00 7.3 6.6 95   0 10.0 101.29     LegendNANA
07:00 12.6 9.3 80 19 9 10.0 101.31     LegendNANA
08:00 14.7 7.6 62 21 12 10.0 101.33     Mainly Clear
09:00 15.5 8.1 61 18 14 10.0 101.26     LegendNANA
10:00 15.6 7.2 57 19 12 10.0 101.25     LegendNANA
11:00 16.7 7.4 54 14 10 10.0 101.23     Mainly Clear
12:00 17.8 7.4 50 15 14 10.0 101.19     LegendNANA
13:00 17.8 7.4 50 13 13 10.0 101.17     LegendNANA
14:00 18.5 7.4 48 24 7 10.0 101.11     Mainly Clear
15:00 20.1 7.9 45 21 11 10.0 101.02     LegendNANA
16:00 19.9 7.4 44 25 14 10.0 100.96     LegendNANA
17:00 20.2 7.7 44 22 16 10.0 100.91     Clear
18:00 19.2 7.7 47 20 16 10.0 100.85     LegendNANA
19:00 17.0 7.7 54 21 14 10.0 100.86     LegendNANA
20:00 12.6 8.1 74 22 12 10.0 100.88     Clear
21:00 10.2 7.8 85 20 9 10.0 100.94     LegendNANA
22:00 9.4 7.9 90 21 7 10.0 100.97     LegendNANA
23:00 8.6 7.7 94 20 8 10.0 100.98     Clear

Notes on Data Quality.

Legend

  • E = Estimated
  • M = Missing
  • NA = Not Available
Date modified: